This is the latest recevied weather packets stored in our database for station/object N5GMJ. If no packets are shown the sender has not sent any weather packets the latest 10 day(s).
| Time | Temp. | Humidity | Pressure | Rain* | Wind** | Luminosity | Snow |
|---|---|---|---|---|---|---|---|
| 1777619180 | 14.44° C | 83% | 1017.9 hPa | 0 mm | - | - | - |
| 1777618875 | 14.44° C | 84% | 1018.1 hPa | 0 mm | - | - | - |
| 1777618574 | 14.44° C | 83% | 1018.3 hPa | 0 mm | - | - | - |
| 1777618271 | 15° C | 83% | 1018.2 hPa | 0 mm | - | - | - |
| 1777617967 | 15° C | 82% | 1018.3 hPa | 0 mm | - | - | - |
| 1777617663 | 15° C | 82% | 1018.6 hPa | 0 mm | - | - | - |
| 1777617359 | 15° C | 83% | 1018.6 hPa | 0 mm | - | - | - |
| 1777617058 | 15° C | 82% | 1018.4 hPa | 0 mm | - | - | - |
| 1777616757 | 15° C | 82% | 1018.3 hPa | 0 mm | - | - | - |
| 1777616452 | 15° C | 86% | 1018.2 hPa | 0 mm | - | - | - |
| 1777616149 | 15° C | 87% | 1018.1 hPa | 0 mm | - | - | - |
| 1777615846 | 15° C | 89% | 1018.5 hPa | 0 mm | - | - | - |
| 1777615543 | 15° C | 89% | 1018.4 hPa | 0 mm | - | - | - |
| 1777615239 | 15° C | 89% | 1018.4 hPa | 0 mm | - | - | - |
| 1777614933 | 15° C | 88% | 1018.3 hPa | 0 mm | - | - | - |
| 1777614630 | 15° C | 86% | 1018.3 hPa | 0 mm | - | - | - |
| 1777614325 | 15° C | 86% | 1018 hPa | 0 mm | - | - | - |
| 1777614021 | 15° C | 85% | 1018 hPa | 0 mm | - | - | - |
| 1777613716 | 15° C | 85% | 1018 hPa | 0 mm | - | - | - |
| 1777613415 | 15° C | 85% | 1018.1 hPa | 0 mm | - | - | - |
| 1777613110 | 15° C | 86% | 1018.1 hPa | 0 mm | - | - | - |
| 1777612806 | 15° C | 84% | 1018.2 hPa | 0 mm | - | - | - |
| 1777612503 | 15° C | 85% | 1017.8 hPa | 0 mm | - | - | - |
| 1777612198 | 15° C | 84% | 1018 hPa | 0 mm | - | - | - |
| 1777611894 | 15° C | 84% | 1017.7 hPa | 0 mm | - | - | - |
* Rain latest hour (hover to see other rain measurements)
** Current wind speed in m/s (hover to see current wind gust speed)